 ,,�O�C���x [��],����1,�O�C���x [��],����2,���ԉ��x [��],����3,���Ԏ��x [��],����4,�m��(��󒲎�)���x [��],����5,���� [��],����6,�R����[��],����7
2002/11/1,0:00,4.4,0,92.7,0,22.3,0,42.7,0,20.7,0,19,0,22.5,0
2002/11/1,0:15,4.5,0,92.3,0,22.2,0,42.5,0,20.6,0,19,0,22.3,0
2002/11/1,0:30,4.7,0,92,0,22.1,0,42,0,20.5,0,19.1,0,22.1,0
2002/11/1,0:45,4.9,0,91.6,0,22.1,0,41.7,0,20.4,0,19.2,0,21.9,0
2002/11/1,1:00,5.5,0,88.9,0,22,0,41.5,0,20.4,0,19.2,0,21.7,0
2002/11/1,1:15,5.9,0,85.9,0,21.9,0,41.4,0,20.3,0,19.3,0,21.6,0
2002/11/1,1:30,6.2,0,83.6,0,21.9,0,41.2,0,20.2,0,19.4,0,21.5,0
2002/11/1,1:45,6.3,0,83.8,0,21.8,0,41.9,0,20.2,0,19.4,0,21.4,0
2002/11/1,2:00,6,0,85.5,0,21.7,0,41.6,0,20.1,0,19.5,0,21.2,0
2002/11/1,2:15,6.4,0,82.8,0,21.7,0,41.3,0,20,0,19.5,0,21.1,0
2002/11/1,2:30,6.4,0,82.5,0,21.6,0,41.1,0,19.9,0,19.6,0,21,0
2002/11/1,2:45,6.5,0,81.9,0,21.6,0,41.1,0,19.9,0,19.6,0,20.9,0
2002/11/1,3:00,6.5,0,82.7,0,21.5,0,41,0,19.8,0,19.7,0,20.8,0
2002/11/1,3:15,6.4,0,84.1,0,21.4,0,40.9,0,19.8,0,19.7,0,20.7,0
2002/11/1,3:30,6.8,0,81.2,0,21.4,0,40.9,0,19.7,0,19.8,0,20.6,0
2002/11/1,3:45,7,0,80.1,0,21.3,0,40.9,0,19.7,0,19.8,0,20.5,0
2002/11/1,4:00,7.1,0,79.7,0,21.3,0,40.9,0,19.6,0,19.8,0,20.4,0
2002/11/1,4:15,7.2,0,80.3,0,21.2,0,40.9,0,19.5,0,19.9,0,20.3,0
2002/11/1,4:30,6.7,0,84.7,0,21.1,0,40.9,0,19.5,0,19.9,0,20.3,0
2002/11/1,4:45,6.7,0,85.1,0,21.1,0,41,0,19.4,0,19.9,0,20.2,0
2002/11/1,5:00,6.8,0,85.3,0,21,0,41,0,19.3,0,20,0,20.1,0
2002/11/1,5:15,6.9,0,85.1,0,21,0,41.1,0,19.2,0,20,0,20.1,0
2002/11/1,5:30,7,0,85.2,0,20.9,0,41.5,0,19.2,0,20,0,20.1,0
2002/11/1,5:45,7.2,0,83.8,0,20.9,0,43.1,0,19.1,0,20,0,20.2,0
2002/11/1,6:00,7.2,0,83.2,0,20.9,0,42.8,0,19.1,0,20.1,0,20.1,0
2002/11/1,6:15,7.3,0,83.9,0,21.2,0,45.2,0,19.1,0,20.1,0,20.2,0
2002/11/1,6:30,7.5,0,83,0,21.6,0,44.9,0,19.3,0,17.8,0,20.8,0
2002/11/1,6:45,7.6,0,84.2,0,22,0,46.6,0,19.5,0,17.7,0,21.8,0
2002/11/1,7:00,7.5,0,86.7,0,22.3,0,45.3,0,19.7,0,17.7,0,22.6,0
2002/11/1,7:15,7.6,0,89.9,0,22.3,0,45,0,19.9,0,15.5,0,23.4,0
2002/11/1,7:30,7.6,0,89.7,0,22.2,0,45.4,0,19.9,0,15,0,23.3,0
2002/11/1,7:45,7.5,0,89.4,0,22,0,45.5,0,20,0,15.1,0,23,0
2002/11/1,8:00,7.8,0,90,0,21.8,0,46.1,0,20,0,15.3,0,22.5,0
2002/11/1,8:15,8.2,0,91.1,0,21.6,0,47.2,0,19.9,0,15.2,0,22.1,0
2002/11/1,8:30,8,0,91.3,0,21.5,0,47.6,0,19.9,0,15.3,0,21.8,0
2002/11/1,8:45,8.1,0,92.1,0,21.4,0,48,0,19.8,0,15.4,0,21.5,0
2002/11/1,9:00,8.3,0,93.8,0,21.3,0,48.1,0,19.8,0,15.5,0,21.3,0
2002/11/1,9:15,9,0,94.4,0,21.3,0,48.3,0,19.8,0,15.6,0,21.1,0
2002/11/1,9:30,9.6,0,93.8,0,21.1,0,48.9,0,19.7,0,15.7,0,20.9,0
2002/11/1,9:45,10.1,0,94,0,21.1,0,49.1,0,19.7,0,15.8,0,20.7,0
2002/11/1,10:00,10.8,0,93.9,0,21,0,49.3,0,19.7,0,16,0,20.6,0
2002/11/1,10:15,11.4,0,92.9,0,21,0,49.7,0,19.7,0,16.1,0,20.5,0
2002/11/1,10:30,11.7,0,91.1,0,20.9,0,50.2,0,19.7,0,16.2,0,20.4,0
2002/11/1,10:45,12.1,0,89.7,0,20.9,0,50.4,0,19.7,0,16.3,0,20.3,0
2002/11/1,11:00,12.2,0,88.8,0,20.9,0,50.7,0,19.7,0,16.5,0,20.3,0
2002/11/1,11:15,12.4,0,87.7,0,20.8,0,51,0,19.7,0,16.6,0,20.2,0
2002/11/1,11:30,12.5,0,87.7,0,20.8,0,51.3,0,19.7,0,16.7,0,20.2,0
2002/11/1,11:45,12.4,0,88.4,0,20.8,0,51.3,0,19.7,0,16.8,0,20.2,0
2002/11/1,12:00,12.4,0,88.7,0,20.7,0,51.3,0,19.7,0,16.9,0,20.1,0
2002/11/1,12:15,12.5,0,91.3,0,20.7,0,51.5,0,19.6,0,17.1,0,20.1,0
2002/11/1,12:30,12.2,0,93.9,0,20.7,0,51.5,0,19.6,0,17.2,0,20.1,0
2002/11/1,12:45,12,0,93.8,0,20.7,0,51.6,0,19.6,0,17.3,0,20.1,0
2002/11/1,13:00,11.8,0,93.7,0,20.6,0,51.7,0,19.6,0,17.4,0,20.1,0
2002/11/1,13:15,11.8,0,93.6,0,20.6,0,51.6,0,19.6,0,17.5,0,20.1,0
2002/11/1,13:30,11.9,0,93.4,0,20.6,0,51.6,0,19.6,0,17.6,0,20.1,0
2002/11/1,13:45,11.7,0,91.8,0,20.6,0,51.5,0,19.6,0,17.6,0,20,0
2002/11/1,14:00,11.6,0,91.8,0,20.6,0,51.5,0,19.6,0,17.8,0,20,0
2002/11/1,14:15,11.5,0,92,0,20.6,0,51.5,0,19.6,0,17.8,0,20,0
2002/11/1,14:30,11.3,0,90.8,0,20.5,0,51.3,0,19.6,0,17.9,0,20,0
2002/11/1,14:45,11.3,0,89.9,0,20.5,0,51.2,0,19.6,0,18,0,19.9,0
2002/11/1,15:00,11.1,0,90.4,0,20.5,0,51.1,0,19.6,0,18.1,0,19.9,0
2002/11/1,15:15,10.9,0,90.3,0,20.4,0,51,0,19.6,0,18.2,0,19.9,0
2002/11/1,15:30,10.6,0,90.8,0,20.4,0,50.8,0,19.5,0,18.2,0,19.9,0
2002/11/1,15:45,10.3,0,91.3,0,20.4,0,50.7,0,19.5,0,18.3,0,19.9,0
2002/11/1,16:00,9.7,0,91.2,0,20.3,0,50.5,0,19.5,0,18.4,0,19.8,0
2002/11/1,16:15,9.5,0,90.2,0,20.3,0,50.4,0,19.5,0,18.5,0,19.8,0
2002/11/1,16:30,9.2,0,90.7,0,20.2,0,50.2,0,19.4,0,18.5,0,19.7,0
2002/11/1,16:45,9.1,0,91.5,0,20.2,0,50,0,19.4,0,18.6,0,19.7,0
2002/11/1,17:00,9,0,91.4,0,20.1,0,49.8,0,19.4,0,18.7,0,19.6,0
2002/11/1,17:15,8.9,0,91.1,0,20.1,0,49.6,0,19.3,0,18.7,0,19.6,0
2002/11/1,17:30,8.9,0,91.2,0,20,0,49.4,0,19.3,0,18.8,0,19.6,0
2002/11/1,17:45,8.9,0,91.1,0,20,0,49.2,0,19.3,0,18.8,0,19.6,0
2002/11/1,18:00,8.9,0,90.8,0,20,0,49,0,19.5,0,18.9,0,19.6,0
2002/11/1,18:15,8.8,0,91.8,0,19.8,0,49,0,19.6,0,19,0,19.6,0
2002/11/1,18:30,8.7,0,92.9,0,20,0,50,0,19.6,0,19,0,19.6,0
2002/11/1,18:45,8.7,0,93.1,0,20.2,0,50,0,19.6,0,15.9,0,19.6,0
2002/11/1,19:00,8.6,0,93.2,0,20.3,0,49.3,0,19.6,0,16,0,20,0
2002/11/1,19:15,8.5,0,93.4,0,20.5,0,53.1,0,19.5,0,16.1,0,21.2,0
2002/11/1,19:30,8.5,0,93.4,0,20.5,0,50.3,0,19.4,0,16.1,0,21.1,0
2002/11/1,19:45,8.3,0,92.2,0,20.4,0,49.9,0,19.3,0,16.3,0,20.8,0
2002/11/1,20:00,8.3,0,89.8,0,20.3,0,49.3,0,19.1,0,16.3,0,20.6,0
2002/11/1,20:15,8.2,0,87.4,0,20.3,0,49.1,0,19,0,16.5,0,20.3,0
2002/11/1,20:30,8.1,0,84.5,0,20.2,0,48.7,0,18.9,0,16.6,0,20.1,0
2002/11/1,20:45,8,0,85.6,0,20.4,0,47.6,0,18.7,0,16.7,0,20,0
2002/11/1,21:00,7.9,0,84.1,0,20.3,0,47.2,0,18.6,0,16.8,0,19.9,0
2002/11/1,21:15,8.1,0,75.9,0,20.2,0,47.4,0,18.5,0,16.9,0,19.8,0
2002/11/1,21:30,8.2,0,71,0,20.4,0,48.4,0,18.4,0,17,0,19.7,0
2002/11/1,21:45,8.2,0,70.5,0,20.6,0,48.6,0,18.3,0,17.2,0,19.8,0
2002/11/1,22:00,7.3,0,77.2,0,20.4,0,48,0,18.2,0,17.2,0,19.8,0
2002/11/1,22:15,7,0,77.7,0,20.4,0,49.3,0,18.1,0,17.3,0,19.7,0
2002/11/1,22:30,7.3,0,73.4,0,20.5,0,50.1,0,18.2,0,17.5,0,19.7,0
2002/11/1,22:45,8.1,0,63.3,0,20.6,0,50.1,0,18.3,0,17.5,0,19.8,0
2002/11/1,23:00,8.1,0,64,0,20.5,0,49.5,0,18.6,0,17.6,0,19.9,0
2002/11/1,23:15,8,0,65.2,0,20.5,0,48.4,0,18.8,0,17.7,0,20.8,0
2002/11/1,23:30,7.9,0,65.7,0,20.5,0,48.4,0,18.9,0,17.8,0,21.3,0
2002/11/1,23:45,7.9,0,65.7,0,20.9,0,47.5,0,19.1,0,17.9,0,21.4,0
2002/11/2,0:00,8,0,64.1,0,21.3,0,46.8,0,19.3,0,18,0,21.5,0
2002/11/2,0:15,7.9,0,61.2,0,21.6,0,46,0,19.5,0,18.1,0,21.6,0
2002/11/2,0:30,7.8,0,62.2,0,21.4,0,46.4,0,19.7,0,15.3,0,21.6,0
2002/11/2,0:45,7.5,0,63.1,0,21.3,0,46.2,0,19.8,0,15.3,0,21.4,0
2002/11/2,1:00,6.9,0,66.4,0,21.3,0,46,0,19.9,0,15.4,0,21.2,0
2002/11/2,1:15,6.9,0,65.8,0,21.1,0,45.3,0,19.9,0,15.1,0,21.1,0
2002/11/2,1:30,7.2,0,66.9,0,20.9,0,45.3,0,19.7,0,15.1,0,20.8,0
2002/11/2,1:45,7.3,0,65.7,0,20.8,0,45,0,19.6,0,15.2,0,20.6,0
2002/11/2,2:00,7.5,0,59.5,0,20.7,0,44.6,0,19.5,0,15.2,0,20.4,0
2002/11/2,2:15,6.5,0,67.4,0,20.6,0,44.5,0,19.4,0,15.4,0,20.4,0
2002/11/2,2:30,7,0,66.8,0,20.5,0,44.7,0,19.3,0,15.5,0,20.2,0
2002/11/2,2:45,7,0,62.1,0,20.5,0,44.8,0,19.2,0,15.6,0,20.2,0
2002/11/2,3:00,7.2,0,59.3,0,20.4,0,44.5,0,19.2,0,15.7,0,20.1,0
2002/11/2,3:15,6.7,0,63.6,0,20.3,0,44.7,0,19.1,0,15.8,0,20,0
2002/11/2,3:30,6.6,0,61.7,0,20.3,0,44.6,0,19,0,16,0,20,0
2002/11/2,3:45,6.7,0,62.3,0,20.2,0,44.3,0,18.9,0,16.1,0,19.9,0
2002/11/2,4:00,6.1,0,67,0,20.1,0,44.6,0,18.9,0,16.2,0,19.8,0
2002/11/2,4:15,5,0,74.2,0,20.1,0,44.5,0,18.8,0,16.3,0,19.8,0
2002/11/2,4:30,5.6,0,73,0,20,0,44.2,0,18.8,0,16.5,0,19.7,0
2002/11/2,4:45,5.5,0,74.2,0,19.9,0,44.2,0,18.7,0,16.6,0,19.7,0
2002/11/2,5:00,6.1,0,62.9,0,19.9,0,44.2,0,18.6,0,16.7,0,19.6,0
2002/11/2,5:15,6.2,0,67.6,0,19.9,0,43.9,0,18.6,0,16.8,0,19.6,0
2002/11/2,5:30,5.6,0,72.4,0,19.8,0,43.9,0,18.5,0,16.9,0,19.5,0
2002/11/2,5:45,5.8,0,68,0,19.8,0,43.9,0,18.4,0,17,0,19.5,0
2002/11/2,6:00,5.7,0,71.1,0,19.8,0,43.7,0,18.4,0,17.1,0,19.4,0
2002/11/2,6:15,6.5,0,62.3,0,19.8,0,43.2,0,18.3,0,17.2,0,19.4,0
2002/11/2,6:30,6.2,0,68.4,0,19.8,0,43.4,0,18.2,0,17.3,0,19.5,0
2002/11/2,6:45,6,0,64.9,0,19.8,0,43.3,0,18.2,0,17.4,0,19.4,0
2002/11/2,7:00,4.4,0,80.4,0,19.8,0,43.3,0,18.2,0,17.5,0,19.4,0
2002/11/2,7:15,4.5,0,77.4,0,19.8,0,43.3,0,18.2,0,17.6,0,19.4,0
2002/11/2,7:30,5.2,0,78,0,19.8,0,43.1,0,18.3,0,17.7,0,19.4,0
2002/11/2,7:45,4.8,0,78.3,0,19.8,0,44.9,0,18.5,0,17.8,0,19.4,0
2002/11/2,8:00,5.6,0,71,0,20.1,0,45.2,0,18.7,0,17.8,0,19.5,0
2002/11/2,8:15,6.1,0,70.2,0,20.4,0,49.5,0,18.7,0,16.7,0,20.9,0
2002/11/2,8:30,5.8,0,77.2,0,20.8,0,50.8,0,18.8,0,16.8,0,21.6,0
2002/11/2,8:45,6,0,70.2,0,20.9,0,48.3,0,18.8,0,16.9,0,21.7,0
2002/11/2,9:00,6.8,0,58.7,0,21,0,47.4,0,19,0,15.8,0,21.7,0
2002/11/2,9:15,6.9,0,57.5,0,20.8,0,47.5,0,19.1,0,15.8,0,21.3,0
2002/11/2,9:30,7,0,54.5,0,20.4,0,45,0,19.1,0,15.9,0,20.9,0
2002/11/2,9:45,7,0,52.6,0,20.3,0,45.2,0,19.1,0,16,0,20.5,0
2002/11/2,10:00,7.3,0,53.2,0,20.2,0,45,0,19.1,0,16.1,0,20.2,0
2002/11/2,10:15,7.1,0,56.2,0,20.1,0,44.8,0,19.1,0,16.1,0,20,0
2002/11/2,10:30,7.3,0,63.2,0,20.1,0,44.6,0,19.1,0,16.2,0,19.8,0
2002/11/2,10:45,7,0,64,0,20.1,0,44.5,0,19.1,0,16.3,0,19.7,0
2002/11/2,11:00,6.9,0,62.8,0,19.9,0,44.4,0,19.1,0,16.4,0,19.6,0
2002/11/2,11:15,6,0,73.5,0,19.8,0,44.1,0,19,0,16.6,0,19.5,0
2002/11/2,11:30,5.7,0,75.4,0,19.7,0,43.9,0,19.1,0,16.7,0,19.3,0
2002/11/2,11:45,5.2,0,75.8,0,19.7,0,43.9,0,19.2,0,16.8,0,19.2,0
2002/11/2,12:00,5,0,80,0,19.6,0,43.8,0,19.2,0,16.9,0,19.1,0
2002/11/2,12:15,5.9,0,76.4,0,19.5,0,43.9,0,19.2,0,17,0,19,0
2002/11/2,12:30,6.8,0,64.9,0,19.5,0,44,0,19.2,0,17.1,0,18.9,0
2002/11/2,12:45,6.9,0,62.4,0,19.4,0,43.9,0,19.1,0,17.2,0,18.9,0
2002/11/2,13:00,6.1,0,74.3,0,19.3,0,43.6,0,19,0,17.3,0,18.8,0
2002/11/2,13:15,5.2,0,80.7,0,19.3,0,43.5,0,19,0,17.3,0,18.6,0
2002/11/2,13:30,5.7,0,77.3,0,19.2,0,43.6,0,19.2,0,17.4,0,18.5,0
2002/11/2,13:45,6,0,77.7,0,19.2,0,43.6,0,19.3,0,17.5,0,18.5,0
2002/11/2,14:00,6.5,0,75,0,19.2,0,43.9,0,19.4,0,17.6,0,18.5,0
2002/11/2,14:15,6.1,0,75.6,0,19.5,0,44.7,0,19.4,0,17.7,0,18.6,0
2002/11/2,14:30,6.6,0,70.6,0,19.6,0,44.5,0,19.3,0,17.7,0,18.7,0
2002/11/2,14:45,6.4,0,73.5,0,19.7,0,44.8,0,19.3,0,17.8,0,18.8,0
2002/11/2,15:00,7,0,71.7,0,19.9,0,44,0,19.3,0,17.9,0,19.2,0
2002/11/2,15:15,6.8,0,70.9,0,20.1,0,43.8,0,19.3,0,17.9,0,19.5,0
2002/11/2,15:30,7.2,0,63.8,0,20.3,0,44.8,0,19.4,0,18,0,19.7,0
2002/11/2,15:45,7.2,0,65.4,0,20.4,0,44.9,0,19.6,0,18.1,0,19.7,0
2002/11/2,16:00,6.6,0,68.5,0,20,0,44.5,0,19.6,0,14.6,0,19.9,0
2002/11/2,16:15,6.1,0,73.5,0,20.1,0,44.9,0,19.5,0,14.6,0,20.1,0
2002/11/2,16:30,6.1,0,73.2,0,20.1,0,45.3,0,19.5,0,14.7,0,19.9,0
2002/11/2,16:45,6.5,0,74.3,0,20.1,0,44.9,0,19.4,0,14.7,0,19.7,0
2002/11/2,17:00,6.8,0,73.6,0,20.7,0,44,0,19.4,0,14.8,0,19.9,0
2002/11/2,17:15,6.2,0,77.5,0,20.6,0,44.4,0,19.5,0,14.9,0,19.9,0
2002/11/2,17:30,5.6,0,81.2,0,20.6,0,44.4,0,19.6,0,15,0,19.8,0
2002/11/2,17:45,5.5,0,76.8,0,20.9,0,44.2,0,19.7,0,15.1,0,19.9,0
2002/11/2,18:00,6.6,0,72.6,0,21.2,0,43.7,0,19.8,0,15.3,0,20.2,0
2002/11/2,18:15,6.7,0,70.9,0,20.8,0,43.4,0,19.8,0,14.7,0,20.2,0
2002/11/2,18:30,6.6,0,71.2,0,20.6,0,43.9,0,19.7,0,14.7,0,20,0
2002/11/2,18:45,7.4,0,60.1,0,20.5,0,44,0,19.6,0,14.8,0,19.9,0
2002/11/2,19:00,7.9,0,60.3,0,20.7,0,46.6,0,19.6,0,14.8,0,19.9,0
2002/11/2,19:15,7.9,0,63.4,0,20.8,0,46,0,19.5,0,14.9,0,20.2,0
2002/11/2,19:30,8.2,0,50.1,0,21,0,44.9,0,19.5,0,15,0,20.5,0
2002/11/2,19:45,8.1,0,51.5,0,21,0,43.1,0,19.4,0,15.1,0,20.5,0
2002/11/2,20:00,8.1,0,54.5,0,21,0,43.9,0,19.4,0,15.2,0,20.5,0
2002/11/2,20:15,8.2,0,53,0,20.9,0,41.8,0,19.3,0,15.3,0,20.4,0
2002/11/2,20:30,8.2,0,51.5,0,20.9,0,42.4,0,19.3,0,15.5,0,20.3,0
2002/11/2,20:45,7.3,0,63.1,0,21.1,0,42.7,0,19.3,0,14.5,0,20.3,0
2002/11/2,21:00,7.3,0,62.2,0,21.4,0,42.3,0,19.4,0,14.5,0,20.6,0
2002/11/2,21:15,7.7,0,64.2,0,21.5,0,42.1,0,19.5,0,14.6,0,20.7,0
2002/11/2,21:30,8,0,56.1,0,21.5,0,42.5,0,19.6,0,14,0,20.7,0
2002/11/2,21:45,7.9,0,54.7,0,21.3,0,42.4,0,19.6,0,14,0,20.6,0
2002/11/2,22:00,7.9,0,52.2,0,21.3,0,44.7,0,19.6,0,15.3,0,20.6,0
2002/11/2,22:15,7.8,0,55.7,0,21.1,0,45.8,0,19.4,0,15.3,0,20.5,0
2002/11/2,22:30,7.7,0,50.2,0,20.9,0,45.3,0,19.4,0,15.4,0,20.3,0
2002/11/2,22:45,7.6,0,52.2,0,20.7,0,48,0,19.4,0,15.5,0,20.1,0
2002/11/2,23:00,7.6,0,54.3,0,20.6,0,50.4,0,19.2,0,15.6,0,20,0
2002/11/2,23:15,7.5,0,52.7,0,20.4,0,51.9,0,19.1,0,15.7,0,19.9,0
2002/11/2,23:30,7.6,0,54.6,0,20.3,0,52.8,0,19,0,15.8,0,19.8,0
2002/11/2,23:45,7.8,0,56.2,0,20.2,0,54.4,0,18.9,0,15.9,0,19.7,0
2002/11/3,0:00,7.9,0,58.9,0,20.2,0,54.5,0,18.8,0,16,0,19.7,0
2002/11/3,0:15,8,0,56.2,0,20.1,0,54.8,0,18.8,0,16.1,0,19.7,0
2002/11/3,0:30,7.9,0,57.4,0,20.1,0,56.1,0,18.8,0,16.2,0,19.6,0
2002/11/3,0:45,7.9,0,57.3,0,20.1,0,56.4,0,18.8,0,16.3,0,19.6,0
2002/11/3,1:00,7.8,0,61.2,0,20,0,55.7,0,18.8,0,16.4,0,19.6,0
2002/11/3,1:15,7.8,0,60.3,0,20.1,0,55.9,0,18.7,0,16.5,0,19.6,0
2002/11/3,1:30,7.8,0,59.2,0,20.1,0,55.6,0,18.7,0,16.6,0,19.6,0
2002/11/3,1:45,7.8,0,58.1,0,20,0,55.7,0,18.6,0,16.6,0,19.6,0
2002/11/3,2:00,7.8,0,56.1,0,20.1,0,55.2,0,18.5,0,16.7,0,19.6,0
2002/11/3,2:15,7.8,0,59.2,0,20.2,0,54.6,0,18.5,0,16.8,0,19.6,0
2002/11/3,2:30,7.7,0,61,0,20.2,0,54.9,0,18.4,0,16.9,0,19.7,0
2002/11/3,2:45,7.6,0,58.1,0,20.2,0,54.6,0,18.4,0,16.9,0,19.7,0
2002/11/3,3:00,7.7,0,57.9,0,20.2,0,54,0,18.4,0,17,0,19.6,0
2002/11/3,3:15,7.7,0,56.2,0,20.3,0,53.3,0,18.4,0,17,0,19.7,0
2002/11/3,3:30,7.9,0,57,0,20.3,0,52.9,0,18.4,0,17.1,0,19.7,0
2002/11/3,3:45,7.6,0,62.4,0,20.2,0,53,0,18.3,0,17.2,0,19.7,0
2002/11/3,4:00,7.6,0,60.5,0,20.2,0,52.4,0,18.3,0,17.2,0,19.7,0
2002/11/3,4:15,7.6,0,59.2,0,20.2,0,52,0,18.3,0,17.3,0,19.6,0
2002/11/3,4:30,7.6,0,56.5,0,20.2,0,51.4,0,18.2,0,17.3,0,19.6,0
2002/11/3,4:45,7.6,0,58.6,0,20.2,0,50.6,0,18.2,0,17.4,0,19.6,0
2002/11/3,5:00,7.7,0,55.9,0,20.2,0,50.3,0,18.2,0,17.4,0,19.6,0
2002/11/3,5:15,7.7,0,56.6,0,20.1,0,49.9,0,18.1,0,17.5,0,19.6,0
2002/11/3,5:30,7.7,0,57.5,0,20.1,0,49.5,0,18.1,0,17.5,0,19.5,0
2002/11/3,5:45,7.7,0,57.2,0,20.1,0,49.2,0,18.1,0,17.6,0,19.5,0
2002/11/3,6:00,7.7,0,57.1,0,20.1,0,49,0,18,0,17.6,0,19.5,0
2002/11/3,6:15,7.5,0,58.3,0,20.1,0,48.6,0,18,0,17.6,0,19.5,0
2002/11/3,6:30,7.4,0,59.9,0,20.3,0,47.9,0,18,0,17.7,0,19.6,0
2002/11/3,6:45,7.6,0,56.9,0,20.3,0,47.9,0,17.9,0,17.7,0,19.6,0
2002/11/3,7:00,7.6,0,56,0,20.3,0,47.5,0,17.9,0,17.7,0,19.6,0
2002/11/3,7:15,7.7,0,57.5,0,20,0,44.4,0,18,0,15.4,0,19.6,0
2002/11/3,7:30,7.5,0,61.4,0,20,0,44.3,0,18.1,0,15.4,0,20.4,0
2002/11/3,7:45,7.6,0,61.3,0,20.3,0,46,0,18.2,0,15.4,0,20.8,0
2002/11/3,8:00,7.9,0,59.1,0,20.4,0,46.3,0,18.3,0,14.3,0,21,0
2002/11/3,8:15,8,0,58.5,0,20.4,0,44.9,0,18.4,0,14.3,0,20.9,0
2002/11/3,8:30,8.1,0,57.2,0,20.4,0,44.5,0,18.5,0,14,0,20.8,0
2002/11/3,8:45,8.2,0,56.6,0,20.2,0,44.7,0,18.5,0,14.1,0,20.5,0
2002/11/3,9:00,8.2,0,57.6,0,20.2,0,44.5,0,18.7,0,14.2,0,20.3,0
2002/11/3,9:15,8.2,0,57,0,20.1,0,44.7,0,18.9,0,14.3,0,20.1,0
2002/11/3,9:30,8.2,0,57.4,0,20.1,0,44.9,0,19,0,14.4,0,19.9,0
2002/11/3,9:45,8.2,0,59.2,0,20,0,45,0,19.1,0,14.5,0,19.8,0
2002/11/3,10:00,8.4,0,57.5,0,20,0,44.9,0,19.1,0,14.6,0,19.7,0
2002/11/3,10:15,8.4,0,56.6,0,19.9,0,44.8,0,19.1,0,14.8,0,19.6,0
2002/11/3,10:30,8.2,0,58.3,0,19.9,0,44.7,0,19,0,14.9,0,19.5,0
2002/11/3,10:45,8,0,59.1,0,19.8,0,44.4,0,19,0,15,0,19.5,0
2002/11/3,11:00,8.1,0,57.9,0,19.9,0,44.8,0,19,0,15.1,0,19.5,0
2002/11/3,11:15,8.1,0,58.2,0,20,0,45.1,0,19,0,15.3,0,19.5,0
2002/11/3,11:30,8,0,59.4,0,20.1,0,45.2,0,19,0,15.4,0,19.6,0
2002/11/3,11:45,7.4,0,67,0,20.2,0,45.2,0,19,0,15.5,0,19.6,0
2002/11/3,12:00,7.1,0,68.9,0,20.3,0,45.4,0,19.1,0,15.7,0,19.6,0
2002/11/3,12:15,7.5,0,64.2,0,20.5,0,45,0,19.3,0,15.8,0,19.9,0
2002/11/3,12:30,7.5,0,64.9,0,20.6,0,46.7,0,19.3,0,13.8,0,20.9,0
2002/11/3,12:45,7.6,0,65,0,20.4,0,46.6,0,19.4,0,13.9,0,20.9,0
2002/11/3,13:00,7.9,0,62.7,0,20.4,0,45.9,0,19.4,0,14,0,20.6,0
2002/11/3,13:15,8.3,0,59.3,0,20.4,0,45.3,0,19.3,0,14.1,0,20.4,0
2002/11/3,13:30,8.4,0,58.9,0,20.3,0,44.9,0,19.3,0,14.2,0,20.2,0
2002/11/3,13:45,8.4,0,60,0,20.3,0,44.7,0,19.3,0,14.3,0,20.1,0
2002/11/3,14:00,8.4,0,60.7,0,20.3,0,44.2,0,19.3,0,14.4,0,20,0
2002/11/3,14:15,8.4,0,61.4,0,20.3,0,44.2,0,19.3,0,14.5,0,19.9,0
2002/11/3,14:30,8.4,0,60.9,0,20.3,0,44.3,0,19.4,0,14.6,0,19.8,0
2002/11/3,14:45,8.3,0,59.3,0,20.3,0,43.9,0,19.5,0,14.7,0,19.8,0
2002/11/3,15:00,8.1,0,59.5,0,20.3,0,43.9,0,19.6,0,14.8,0,19.7,0
2002/11/3,15:15,8.2,0,59.4,0,20.1,0,42.3,0,19.6,0,14.9,0,19.6,0
2002/11/3,15:30,8.3,0,59.2,0,20.2,0,45.5,0,19.6,0,15.1,0,19.8,0
2002/11/3,15:45,8.1,0,62.4,0,20.2,0,45.6,0,19.5,0,15.2,0,20,0
2002/11/3,16:00,8,0,63.8,0,20.2,0,44.8,0,19.5,0,15.3,0,19.9,0
2002/11/3,16:15,7.8,0,62.9,0,20.2,0,45,0,19.4,0,15.4,0,19.7,0
2002/11/3,16:30,7.7,0,56,0,20.3,0,44.2,0,19.4,0,14.5,0,19.6,0
2002/11/3,16:45,7.5,0,60.6,0,20.3,0,43.7,0,19.4,0,14.9,0,19.5,0
2002/11/3,17:00,6.9,0,66.8,0,20.1,0,44.5,0,19.5,0,15,0,19.4,0
2002/11/3,17:15,6.7,0,68.2,0,20.2,0,44.6,0,19.6,0,15,0,19.4,0
2002/11/3,17:30,6.6,0,69.7,0,20.4,0,47,0,19.7,0,15.1,0,19.5,0
2002/11/3,17:45,6.4,0,73.8,0,20.3,0,46.7,0,19.5,0,15.2,0,19.6,0
2002/11/3,18:00,6.4,0,73.4,0,21,0,44.9,0,19.3,0,15.3,0,20.1,0
2002/11/3,18:15,6.2,0,76.3,0,21.4,0,43.3,0,19.2,0,15.4,0,20.8,0
2002/11/3,18:30,6,0,76.5,0,21.8,0,41.5,0,19,0,15.5,0,22.3,0
2002/11/3,18:45,5.7,0,80.5,0,21.8,0,40.6,0,18.8,0,15.7,0,23.5,0
2002/11/3,19:00,5.1,0,84.1,0,22,0,40.5,0,18.6,0,15.8,0,23.9,0
2002/11/3,19:15,4.6,0,87.1,0,22.3,0,43.9,0,18.4,0,15.9,0,24.5,0
2002/11/3,19:30,4.5,0,87.8,0,22.5,0,46.1,0,18.3,0,16,0,24.1,0
2002/11/3,19:45,4.4,0,87.6,0,22.5,0,43.7,0,18.2,0,16.1,0,23.7,0
2002/11/3,20:00,4.3,0,88.2,0,22.6,0,42.9,0,18.1,0,16.2,0,23.4,0
2002/11/3,20:15,4.1,0,89.4,0,22.7,0,42.5,0,18,0,16.3,0,23.1,0
2002/11/3,20:30,4,0,90,0,22.7,0,41.8,0,17.9,0,16.4,0,22.8,0
2002/11/3,20:45,4,0,90,0,22.7,0,40.8,0,17.8,0,14.9,0,22.4,0
2002/11/3,21:00,3.9,0,89.3,0,22.6,0,42,0,17.7,0,14.9,0,22.3,0
2002/11/3,21:15,3.6,0,89.2,0,22.3,0,42.1,0,17.6,0,14.9,0,21.9,0
2002/11/3,21:30,3.4,0,90,0,21.8,0,41.4,0,17.7,0,15,0,21.5,0
2002/11/3,21:45,3.2,0,90.3,0,21.6,0,41.3,0,18,0,15.1,0,21.1,0
2002/11/3,22:00,3.1,0,90.4,0,21.6,0,42.7,0,18.1,0,15.1,0,20.8,0
2002/11/3,22:15,3.1,0,91.3,0,21.5,0,43.4,0,18,0,15.2,0,20.6,0
2002/11/3,22:30,3.1,0,91.2,0,21.5,0,43.3,0,18,0,15.4,0,20.5,0
2002/11/3,22:45,3.2,0,91.3,0,21.3,0,43.3,0,17.9,0,15.5,0,20.3,0
2002/11/3,23:00,3.1,0,91.1,0,21.2,0,43.3,0,17.9,0,15.6,0,20.2,0
2002/11/3,23:15,3,0,90.5,0,21,0,42.8,0,17.8,0,15.7,0,20,0
2002/11/3,23:30,3.1,0,90.9,0,21,0,43,0,17.8,0,15.8,0,19.9,0
2002/11/3,23:45,3,0,90.6,0,20.9,0,43,0,17.7,0,15.9,0,19.8,0
2002/11/4,0:00,2.8,0,91.2,0,20.9,0,43,0,17.7,0,16,0,19.8,0
2002/11/4,0:15,2.9,0,91.9,0,20.5,0,42.4,0,17.7,0,16.1,0,19.6,0
2002/11/4,0:30,2.8,0,91.8,0,20.4,0,42,0,17.6,0,16.2,0,19.5,0
2002/11/4,0:45,2.4,0,91.6,0,20.2,0,41.7,0,17.6,0,16.3,0,19.4,0
2002/11/4,1:00,2.2,0,91.9,0,20.1,0,42.1,0,17.5,0,16.4,0,19.3,0
2002/11/4,1:15,2,0,92.2,0,20,0,41.7,0,17.4,0,16.5,0,19.2,0
2002/11/4,1:30,1.8,0,92.2,0,20,0,41.3,0,17.3,0,16.6,0,19.2,0
2002/11/4,1:45,1.8,0,92.4,0,19.9,0,41.5,0,17.2,0,16.7,0,19.1,0
2002/11/4,2:00,1.8,0,92.8,0,19.9,0,41.3,0,17.2,0,16.7,0,19.1,0
2002/11/4,2:15,1.9,0,93.2,0,19.9,0,41,0,17.1,0,16.8,0,19.1,0
2002/11/4,2:30,2.1,0,92.7,0,19.9,0,41,0,17,0,16.9,0,19.1,0
2002/11/4,2:45,2.1,0,92.6,0,19.8,0,40.9,0,16.9,0,17,0,19,0
2002/11/4,3:00,1.9,0,92.8,0,19.8,0,40.7,0,16.9,0,17,0,19,0
2002/11/4,3:15,1.9,0,93.2,0,19.8,0,40.7,0,16.8,0,17.1,0,19,0
2002/11/4,3:30,2,0,93,0,19.8,0,40.8,0,16.7,0,17.2,0,18.9,0
2002/11/4,3:45,2.2,0,92.1,0,19.7,0,40.7,0,16.6,0,17.2,0,18.8,0
2002/11/4,4:00,2.4,0,91.6,0,19.7,0,40.4,0,16.6,0,17.3,0,18.8,0
2002/11/4,4:15,2.4,0,91.9,0,19.7,0,40.6,0,16.5,0,17.3,0,18.8,0
2002/11/4,4:30,2.4,0,92.2,0,19.6,0,40.5,0,16.4,0,17.4,0,18.8,0
2002/11/4,4:45,2.7,0,91.3,0,19.6,0,40.5,0,16.3,0,17.5,0,18.7,0
2002/11/4,5:00,2.9,0,91.1,0,19.5,0,40.6,0,16.2,0,17.5,0,18.7,0
2002/11/4,5:15,3,0,91.6,0,19.5,0,40.6,0,16.2,0,17.6,0,18.6,0
2002/11/4,5:30,3,0,92,0,19.5,0,40.5,0,16.1,0,17.6,0,18.6,0
2002/11/4,5:45,2.9,0,92.2,0,19.4,0,40.5,0,16,0,17.7,0,18.5,0
2002/11/4,6:00,2.8,0,92.5,0,19.4,0,40.6,0,15.9,0,17.7,0,18.5,0
2002/11/4,6:15,2.7,0,92.9,0,19.4,0,40.4,0,15.9,0,17.7,0,18.5,0
2002/11/4,6:30,2.7,0,93.1,0,19.5,0,40.2,0,15.8,0,17.8,0,18.6,0
2002/11/4,6:45,2.8,0,92.7,0,19.5,0,40.5,0,15.8,0,17.8,0,18.6,0
2002/11/4,7:00,2.9,0,92.4,0,19.5,0,40.5,0,15.8,0,17.8,0,18.6,0
2002/11/4,7:15,3,0,92.6,0,19.5,0,40.8,0,15.8,0,17.9,0,18.6,0
2002/11/4,7:30,3.1,0,92.4,0,19.5,0,40.9,0,15.7,0,17.9,0,18.6,0
2002/11/4,7:45,3.3,0,91.8,0,19.6,0,41,0,15.7,0,17.9,0,18.6,0
2002/11/4,8:00,3.8,0,91.3,0,19.5,0,41.1,0,15.8,0,18,0,18.6,0
2002/11/4,8:15,3.9,0,90.5,0,19.5,0,42.1,0,15.9,0,16.5,0,18.6,0
2002/11/4,8:30,4.2,0,89.8,0,19.8,0,43.8,0,16.4,0,16.5,0,18.7,0
2002/11/4,8:45,4.7,0,88.7,0,20.3,0,46.6,0,16.9,0,16.5,0,19.8,0
2002/11/4,9:00,4.9,0,87.7,0,20.4,0,51.4,0,16.9,0,16.6,0,20.4,0
2002/11/4,9:15,5.4,0,87.4,0,20.3,0,49.2,0,16.9,0,13.9,0,20.1,0
2002/11/4,9:30,5.9,0,84.5,0,20.6,0,48.6,0,17.1,0,14.3,0,20.1,0
2002/11/4,9:45,6.5,0,81.4,0,20.7,0,49.2,0,17.5,0,14.4,0,20.3,0
2002/11/4,10:00,6.6,0,81.4,0,20.7,0,49.1,0,17.8,0,14.5,0,20,0
2002/11/4,10:15,6.9,0,79.9,0,20.7,0,48.7,0,18.1,0,14.5,0,19.9,0
2002/11/4,10:30,7.3,0,76.6,0,20.7,0,47,0,18.3,0,14.7,0,19.7,0
2002/11/4,10:45,7.7,0,72.8,0,20.8,0,47.7,0,18.5,0,14.8,0,19.6,0
2002/11/4,11:00,7.8,0,69.2,0,20.9,0,47.1,0,18.6,0,14.9,0,19.6,0
2002/11/4,11:15,8.3,0,67.5,0,21.1,0,46.8,0,18.9,0,15,0,19.7,0
2002/11/4,11:30,8.5,0,65.9,0,21.4,0,47.7,0,19.3,0,15.1,0,19.8,0
2002/11/4,11:45,8.9,0,63.1,0,21.5,0,49.3,0,19.7,0,15.2,0,19.9,0
2002/11/4,12:00,9.2,0,59,0,21.7,0,51.2,0,20,0,15.3,0,20.1,0
2002/11/4,12:15,9.3,0,57.1,0,21.9,0,50.3,0,20.4,0,15.5,0,20.4,0
2002/11/4,12:30,9.7,0,56.8,0,21.9,0,49.9,0,20.7,0,15.6,0,20.6,0
2002/11/4,12:45,10.3,0,54.6,0,22.2,0,50,0,21.1,0,15.7,0,20.8,0
2002/11/4,13:00,10.7,0,52.3,0,22.3,0,50,0,21.5,0,15.8,0,21,0
2002/11/4,13:15,10.1,0,55.1,0,22.4,0,49.5,0,21.8,0,15.9,0,21.2,0
2002/11/4,13:30,9.7,0,58,0,22.4,0,49.2,0,21.9,0,16,0,21.3,0
2002/11/4,13:45,10,0,55.8,0,22.4,0,48,0,22,0,16.2,0,21.4,0
2002/11/4,14:00,9.7,0,55.3,0,22.4,0,46.8,0,22.1,0,16.3,0,21.4,0
2002/11/4,14:15,9.4,0,55.9,0,22.4,0,47.2,0,22,0,16.4,0,21.5,0
2002/11/4,14:30,9.2,0,55.6,0,22.3,0,46.2,0,21.9,0,16.5,0,21.5,0
2002/11/4,14:45,9.3,0,51,0,22.1,0,46,0,21.7,0,14.5,0,21.4,0
2002/11/4,15:00,9.1,0,54.4,0,21.9,0,43.7,0,21.6,0,14.6,0,21.4,0
2002/11/4,15:15,8.9,0,53.9,0,21.9,0,44,0,21.5,0,14.7,0,21.4,0
2002/11/4,15:30,8.7,0,55.2,0,22,0,44.4,0,21.4,0,14.8,0,21.3,0
2002/11/4,15:45,8.6,0,56.1,0,21.9,0,44.4,0,21.3,0,13.7,0,21.3,0
2002/11/4,16:00,8.6,0,54.7,0,21.9,0,45.2,0,21.1,0,13.8,0,21.3,0
2002/11/4,16:15,8.6,0,50.9,0,21.9,0,44.8,0,21,0,13.9,0,21.3,0
2002/11/4,16:30,8.3,0,50.4,0,21.9,0,47.3,0,20.9,0,14.1,0,21.3,0
2002/11/4,16:45,8.4,0,51.5,0,21.7,0,46.5,0,20.7,0,14.2,0,21.2,0
2002/11/4,17:00,8.1,0,58.3,0,21.6,0,46.8,0,20.4,0,14.3,0,21.2,0
2002/11/4,17:15,7.8,0,61.1,0,21.6,0,47,0,20.2,0,14.4,0,21.1,0
2002/11/4,17:30,8,0,58.8,0,21.7,0,48.3,0,20,0,14,0,21.8,0
2002/11/4,17:45,8.4,0,48.2,0,21.8,0,45.7,0,19.8,0,15,0,22.5,0
2002/11/4,18:00,8.2,0,48.9,0,21.7,0,43.8,0,19.6,0,15.2,0,22.7,0
2002/11/4,18:15,7.9,0,59.9,0,21.6,0,42.7,0,19.4,0,15.3,0,22.5,0
2002/11/4,18:30,7.6,0,68.2,0,21.6,0,43.9,0,19.3,0,15.4,0,22.3,0
2002/11/4,18:45,7.8,0,65.5,0,22.1,0,46,0,19.1,0,15.5,0,23.1,0
2002/11/4,19:00,7.8,0,63.1,0,22,0,49.4,0,19,0,15.7,0,23.5,0
2002/11/4,19:15,7.7,0,62.8,0,22,0,50.2,0,18.9,0,15.8,0,23.3,0
2002/11/4,19:30,6.5,0,73.3,0,22.1,0,50.6,0,18.8,0,15.9,0,23.4,0
2002/11/4,19:45,5.7,0,76.4,0,22,0,48.9,0,18.7,0,16,0,23.4,0
2002/11/4,20:00,5.4,0,78.7,0,21.9,0,48.5,0,18.6,0,16.1,0,23.3,0
2002/11/4,20:15,5,0,83.6,0,21.8,0,48.1,0,18.5,0,14.8,0,23.1,0
2002/11/4,20:30,4.9,0,83.3,0,21.8,0,47.8,0,18.4,0,14.7,0,22.9,0
2002/11/4,20:45,4.8,0,84.7,0,21.7,0,47.5,0,18.3,0,14.7,0,22.6,0
2002/11/4,21:00,4.7,0,85.5,0,21.7,0,47.2,0,18.2,0,14.1,0,22.2,0
2002/11/4,21:15,4.8,0,85.8,0,21.5,0,46.1,0,18.2,0,14,0,21.9,0
2002/11/4,21:30,4.7,0,85.5,0,21.3,0,46.1,0,18.1,0,14,0,21.5,0
2002/11/4,21:45,4.6,0,84.4,0,21.2,0,46.1,0,18.1,0,14.1,0,21.2,0
2002/11/4,22:00,4.8,0,81.7,0,21,0,46,0,18,0,14.2,0,20.9,0